Time,TemperatureF,DewpointF,PressureIn,WindDirection,WindDirectionDegrees,WindSpeedMPH,WindSpeedGustMPH,Humidity,HourlyPrecipIn,Conditions,Clouds,dailyrainin,SolarRadiationWatts/m^2,SoftwareType,DateUTC
2013-06-24 05:23:00,52.0,40.0,29.78,East,84,3.0,5.0,63,-99.99,,,-99.99,0.000000,,2013-06-24 12:23:00,
2013-06-24 05:36:00,52.0,40.0,29.78,East,84,3.0,5.0,63,-99.99,,,-99.99,0.000000,,2013-06-24 12:36:00,
2013-06-24 06:40:00,54.0,39.0,29.78,SSE,164,1.0,3.0,58,-99.99,,,-99.99,20.000000,,2013-06-24 13:40:00,
2013-06-24 07:36:00,54.0,39.0,29.78,SSE,164,1.0,3.0,58,-99.99,,,-99.99,20.000000,,2013-06-24 14:36:00,
2013-06-24 07:40:00,58.0,40.0,29.79,SW,217,3.0,7.0,51,-99.99,,,-99.99,50.000000,,2013-06-24 14:40:00,
2013-06-24 08:26:00,58.0,40.0,29.79,SW,217,3.0,7.0,51,-99.99,,,-99.99,50.000000,,2013-06-24 15:26:00,
2013-06-24 08:34:00,58.0,40.0,29.79,SW,217,3.0,7.0,51,-99.99,,,-99.99,50.000000,,2013-06-24 15:34:00,
2013-06-24 08:40:00,60.0,40.0,29.82,South,183,7.0,15.0,49,-99.99,,,-99.99,100.000000,,2013-06-24 15:40:00,
2013-06-24 09:23:00,60.0,40.0,29.82,South,183,7.0,15.0,49,-99.99,,,-99.99,100.000000,,2013-06-24 16:23:00,
2013-06-24 09:34:00,60.0,40.0,29.82,South,183,7.0,15.0,49,-99.99,,,-99.99,100.000000,,2013-06-24 16:34:00,
2013-06-24 09:40:00,59.0,45.0,29.83,SW,226,4.0,6.0,60,-99.99,,,-99.99,250.000000,,2013-06-24 16:40:00,
2013-06-24 10:34:00,59.0,45.0,29.83,SW,226,4.0,6.0,60,-99.99,,,-99.99,250.000000,,2013-06-24 17:34:00,
2013-06-24 10:40:00,61.0,43.0,29.83,West,259,4.0,9.0,52,-99.99,,,-99.99,300.000000,,2013-06-24 17:40:00,
2013-06-24 11:34:00,61.0,43.0,29.83,West,259,4.0,9.0,52,-99.99,,,-99.99,300.000000,,2013-06-24 18:34:00,
2013-06-24 11:40:00,64.0,42.0,29.84,SSW,210,4.0,9.0,44,-99.99,,,-99.99,310.000000,,2013-06-24 18:40:00,
2013-06-24 12:24:00,64.0,42.0,29.84,SSW,210,4.0,9.0,44,-99.99,,,-99.99,310.000000,,2013-06-24 19:24:00,
2013-06-24 12:35:00,64.0,42.0,29.84,SSW,210,4.0,9.0,44,-99.99,,,-99.99,310.000000,,2013-06-24 19:35:00,
2013-06-24 12:40:00,64.0,42.0,29.84,WSW,255,12.0,20.0,44,-99.99,,,-99.99,400.000000,,2013-06-24 19:40:00,
2013-06-24 14:24:00,65.0,43.0,29.85,WSW,256,11.0,17.0,45,-99.99,,,-99.99,390.000000,,2013-06-24 21:24:00,
2013-06-24 14:36:00,65.0,43.0,29.85,WSW,256,11.0,17.0,45,-99.99,,,-99.99,390.000000,,2013-06-24 21:36:00,
2013-06-24 14:40:00,67.0,43.0,29.86,WSW,256,10.0,18.0,42,-99.99,,,-99.99,280.000000,,2013-06-24 21:40:00,
2013-06-24 15:40:00,60.0,47.0,29.90,WNW,297,5.0,10.0,63,-99.99,,,-99.99,300.000000,,2013-06-24 22:40:00,
2013-06-24 16:24:00,60.0,47.0,29.90,WNW,297,5.0,10.0,63,-99.99,,,-99.99,300.000000,,2013-06-24 23:24:00,
2013-06-24 16:34:00,60.0,47.0,29.90,WNW,297,5.0,10.0,63,-99.99,,,-99.99,300.000000,,2013-06-24 23:34:00,
2013-06-24 16:40:00,62.0,44.0,29.89,WSW,250,17.0,28.0,50,-99.99,,,-99.99,370.000000,,2013-06-24 23:40:00,
2013-06-24 17:22:00,62.0,44.0,29.89,WSW,250,17.0,28.0,50,-99.99,,,-99.99,370.000000,,2013-06-25 00:22:00,
2013-06-24 17:33:00,62.0,44.0,29.89,WSW,250,17.0,28.0,50,-99.99,,,-99.99,370.000000,,2013-06-25 00:33:00,
2013-06-24 17:40:00,63.0,43.0,29.91,WSW,254,10.0,17.0,49,-99.99,,,-99.99,540.000000,,2013-06-25 00:40:00,
2013-06-24 18:23:00,63.0,43.0,29.91,WSW,254,10.0,17.0,49,-99.99,,,-99.99,540.000000,,2013-06-25 01:23:00,
2013-06-24 18:33:00,63.0,43.0,29.91,WSW,254,10.0,17.0,49,-99.99,,,-99.99,540.000000,,2013-06-25 01:33:00,
2013-06-24 18:40:00,62.0,43.0,29.90,SW,233,8.0,14.0,49,-99.99,,,-99.99,120.000000,,2013-06-25 01:40:00,
2013-06-24 19:24:00,62.0,43.0,29.90,SW,233,8.0,14.0,49,-99.99,,,-99.99,120.000000,,2013-06-25 02:24:00,
2013-06-24 19:35:00,62.0,43.0,29.90,SW,233,8.0,14.0,49,-99.99,,,-99.99,120.000000,,2013-06-25 02:35:00,
2013-06-24 19:40:00,61.0,44.0,29.91,SSW,204,4.0,10.0,54,-99.99,,,-99.99,50.000000,,2013-06-25 02:40:00,
2013-06-24 20:27:00,61.0,44.0,29.91,SSW,204,4.0,10.0,54,-99.99,,,-99.99,50.000000,,2013-06-25 03:27:00,
2013-06-24 20:40:00,58.0,45.0,29.91,SW,230,5.0,7.0,62,-99.99,,,-99.99,0.000000,,2013-06-25 03:40:00,
2013-06-24 21:22:00,58.0,45.0,29.91,SW,230,5.0,7.0,62,-99.99,,,-99.99,0.000000,,2013-06-25 04:22:00,
2013-06-24 21:34:00,58.0,45.0,29.91,SW,230,5.0,7.0,62,-99.99,,,-99.99,0.000000,,2013-06-25 04:34:00,
2013-06-24 21:40:00,57.0,46.0,29.92,ESE,118,3.0,7.0,68,-99.99,,,-99.99,0.000000,,2013-06-25 04:40:00,
2013-06-24 22:22:00,57.0,46.0,29.92,ESE,118,3.0,7.0,68,-99.99,,,-99.99,0.000000,,2013-06-25 05:22:00,
2013-06-24 22:32:00,57.0,46.0,29.92,ESE,118,3.0,7.0,68,-99.99,,,-99.99,0.000000,,2013-06-25 05:32:00,
2013-06-24 23:40:00,55.0,48.0,29.93,NW,313,2.0,4.0,76,-99.99,,,-99.99,0.000000,,2013-06-25 06:40:00,